Weather History for KTKV - July, 2013

Change the Weather History Date:

Sunday, July 28, 2013

  Actual Average (KRHI) Record (KRHI)
Temperature  
Mean Temperature 52 °F 67 °F  
Max Temperature 61 °F 79 °F 95 °F (1916)
Min Temperature 44 °F 54 °F 43 °F (1978)
Degree Days  
Heating Degree Days 12 1  
Month to date heating degree days 54  
Since 1 June heating degree days 188  
Since 1 July heating degree days 54  
Cooling Degree Days 0 3  
Month to date cooling degree days 95  
Year to date cooling degree days 160  
Since 1 June cooling degree days 148  
Growing Degree Days 2 (Base 50)    
Moisture  
Dew Point 48 °F    
Average Humidity 85    
Maximum Humidity 96    
Minimum Humidity 64    
Precipitation  
Precipitation 0.00 in 0.12 in 1.29 in (1964)
Month to date precipitation 3.67  
Year to date precipitation 17.24  
Snow  
Snow 0.00 in - 0.00 in ()
Month to date snowfall  
Since 1 June snowfall  
Since 1 July snowfall  
Snow Depth -    
Sea Level Pressure  
Sea Level Pressure 29.92 in    
Wind  
Wind Speed 7 mph (NW)    
Max Wind Speed 14 mph    
Max Gust Speed 23 mph    
Visibility 9 miles    
Events Rain    
T = Trace of Precipitation, MM = Missing Value Source: NWS Daily Summary

Daily Weather History Graph

Daily Weather History Graph

Search for Another Location

Airport or City:

Trip Planner

Search our weather history database for the weather conditions in past years. The results will help you decide how hot, cold, wet, or windy it might be!

Date:

Astronomy

Jul. 28, 2013 Rise Set
Actual Time 5:38 AM CDT 8:31 PM CDT
Civil Twilight 5:04 AM CDT 9:06 PM CDT
Nautical Twilight 4:20 AM CDT 9:50 PM CDT
Astronomical Twilight 3:27 AM CDT 10:41 PM CDT
Moon 11:29 PM CDT (7/28) 12:44 PM CDT (7/28)
Length of Visible Light 16h 01m
Length of Day
14h 52m
Waning Gibbous, 60% of the Moon is Illuminated
Jul 28
Waning Gibbous
Jul 29
Last Quarter
Aug 6
New
Aug 14
First Quarter
Aug 20
Full

Hourly Weather History & Observations

Time (CDT) Temp. Windchill Dew Point Humidity Pressure Visibility Wind Dir Wind Speed Gust Speed Precip Events Conditions
12:15 AM 48.2 °F - 46.4 °F 93% 29.86 in 10.0 mi NW 4.6 mph - N/A   Overcast
12:35 AM 48.0 °F - 45.7 °F 92% 29.86 in 10.0 mi NW 5.8 mph - N/A   Overcast
12:55 AM 47.8 °F - 45.5 °F 92% 29.87 in 10.0 mi NW 5.8 mph - N/A   Overcast
1:15 AM 47.5 °F - 45.1 °F 92% 29.87 in 10.0 mi NW 4.6 mph - N/A   Overcast
1:35 AM 47.5 °F - 45.0 °F 91% 29.87 in 10.0 mi NW 4.6 mph - N/A   Overcast
1:55 AM 47.3 °F - 44.8 °F 91% 29.86 in 10.0 mi NW 5.8 mph - N/A   Overcast
2:15 AM 47.3 °F - 44.6 °F 90% 29.86 in 10.0 mi NW 4.6 mph - N/A   Overcast
2:35 AM 46.9 °F - 44.1 °F 90% 29.87 in 10.0 mi NW 5.8 mph - N/A   Overcast
2:55 AM 46.4 °F 44.3 °F 43.3 °F 89% 29.87 in 10.0 mi NW 4.6 mph - N/A   Overcast
3:15 AM 45.7 °F 42.7 °F 42.8 °F 90% 29.87 in 10.0 mi NW 5.8 mph - N/A   Overcast
3:35 AM 45.1 °F 42.8 °F 42.3 °F 90% 29.87 in 10.0 mi NW 4.6 mph - N/A   Overcast
3:55 AM 45.0 °F 43.5 °F 42.1 °F 90% 29.87 in 10.0 mi NW 3.5 mph - N/A   Overcast
4:15 AM 44.6 °F 43.1 °F 41.9 °F 90% 29.86 in 10.0 mi WNW 3.5 mph - N/A   Overcast
4:35 AM 44.6 °F - 42.1 °F 91% 29.86 in 10.0 mi Calm Calm - N/A   Overcast
4:55 AM 44.2 °F 41.8 °F 42.1 °F 92% 29.86 in 10.0 mi West 4.6 mph - N/A   Overcast
5:15 AM 44.8 °F 42.4 °F 42.8 °F 93% 29.86 in 10.0 mi West 4.6 mph - N/A   Overcast
5:35 AM 45.1 °F 43.7 °F 43.3 °F 93% 29.86 in 5.0 mi WNW 3.5 mph - N/A   Overcast
5:55 AM 45.5 °F 43.2 °F 43.9 °F 94% 29.87 in 1.8 mi WNW 4.6 mph - N/A   Overcast
6:15 AM 45.9 °F - 44.6 °F 95% 29.87 in 1.0 mi Calm Calm - N/A   Overcast
6:35 AM 46.6 °F - 45.5 °F 96% 29.87 in 1.2 mi WNW 4.6 mph - N/A   Overcast
6:55 AM 47.5 °F - 46.4 °F 96% 29.87 in 1.8 mi NW 4.6 mph - N/A   Overcast
7:15 AM 48.2 °F - 46.8 °F 95% 29.88 in 4.0 mi WNW 4.6 mph - N/A   Overcast
7:35 AM 48.6 °F - 47.3 °F 95% 29.87 in 7.0 mi WNW 6.9 mph - N/A   Overcast
7:55 AM 49.3 °F - 47.8 °F 95% 29.88 in 10.0 mi WNW 6.9 mph - N/A   Overcast
8:15 AM 49.8 °F - 48.2 °F 94% 29.88 in 7.0 mi WNW 9.2 mph - N/A   Overcast
8:35 AM 50.5 °F - 48.6 °F 93% 29.88 in 10.0 mi NW 8.1 mph - N/A   Overcast
8:55 AM 51.3 °F - 48.6 °F 90% 29.88 in 10.0 mi NW 8.1 mph - N/A   Overcast
9:15 AM 51.8 °F - 48.6 °F 89% 29.89 in 7.0 mi WNW 9.2 mph - N/A   Overcast
9:35 AM 52.3 °F - 49.5 °F 90% 29.88 in 4.0 mi NW 6.9 mph - N/A   Overcast
9:55 AM 53.2 °F - 49.8 °F 88% 29.89 in 7.0 mi NW 9.2 mph - N/A   Overcast
10:15 AM 53.6 °F - 50.4 °F 89% 29.89 in 7.0 mi WNW 8.1 mph - N/A   Overcast
10:35 AM 56.3 °F - 49.6 °F 78% 29.89 in 10.0 mi NW 12.7 mph 16.1 mph N/A   Mostly Cloudy
10:55 AM 56.7 °F - 49.8 °F 78% 29.88 in 10.0 mi WNW 10.4 mph 17.3 mph N/A   Mostly Cloudy
11:15 AM 57.4 °F - 50.0 °F 76% 29.89 in 10.0 mi WNW 10.4 mph 17.3 mph N/A   Mostly Cloudy
11:35 AM 56.5 °F - 48.6 °F 75% 29.90 in 10.0 mi WNW 12.7 mph 20.7 mph N/A   Overcast
11:55 AM 57.4 °F - 49.5 °F 75% 29.90 in 10.0 mi WNW 11.5 mph 17.3 mph N/A   Overcast
12:15 PM 58.1 °F - 48.7 °F 71% 29.90 in 10.0 mi NW 11.5 mph 18.4 mph N/A   Overcast
12:35 PM 59.5 °F - 49.1 °F 68% 29.89 in 10.0 mi NW 11.5 mph 17.3 mph N/A   Scattered Clouds
12:55 PM 61.5 °F - 49.1 °F 64% 29.89 in 10.0 mi NW 10.4 mph 19.6 mph N/A   Mostly Cloudy
1:15 PM 61.7 °F - 49.3 °F 64% 29.89 in 10.0 mi NW 11.5 mph 21.9 mph N/A   Overcast
1:35 PM 61.3 °F - 50.4 °F 67% 29.89 in 10.0 mi NW 13.8 mph 18.4 mph N/A   Overcast
1:55 PM 59.9 °F - 49.5 °F 68% 29.90 in 10.0 mi NW 12.7 mph 18.4 mph N/A   Overcast
2:15 PM 59.4 °F - 49.8 °F 71% 29.90 in 10.0 mi WNW 13.8 mph 17.3 mph N/A   Overcast
2:35 PM 59.0 °F - 50.0 °F 72% 29.91 in 10.0 mi NW 11.5 mph 23.0 mph N/A   Overcast
2:55 PM 57.4 °F - 50.0 °F 76% 29.92 in 10.0 mi NW 10.4 mph 19.6 mph N/A   Overcast
3:15 PM 56.3 °F - 50.7 °F 82% 29.93 in 7.0 mi NNW 10.4 mph 16.1 mph N/A   Overcast
3:35 PM 55.0 °F - 50.7 °F 85% 29.94 in 4.0 mi NNW 6.9 mph 17.3 mph N/A Rain Light Rain
3:55 PM 54.3 °F - 51.4 °F 90% 29.95 in 4.0 mi WNW 8.1 mph - N/A   Light Drizzle
4:15 PM 54.5 °F - 51.3 °F 89% 29.95 in 7.0 mi WNW 10.4 mph 17.3 mph N/A   Overcast
4:35 PM 55.4 °F - 51.1 °F 85% 29.95 in 10.0 mi WNW 8.1 mph 17.3 mph N/A   Overcast
4:55 PM 55.8 °F - 50.9 °F 84% 29.95 in 10.0 mi WNW 8.1 mph - N/A   Overcast
5:15 PM 56.3 °F - 50.9 °F 82% 29.96 in 10.0 mi WNW 9.2 mph - N/A   Overcast
5:35 PM 56.3 °F - 51.1 °F 83% 29.96 in 10.0 mi WNW 10.4 mph - N/A   Overcast
5:55 PM 56.5 °F - 51.8 °F 84% 29.96 in 10.0 mi WNW 9.2 mph - N/A   Overcast
6:15 PM 56.7 °F - 51.1 °F 82% 29.96 in 10.0 mi NW 12.7 mph 20.7 mph N/A   Overcast
6:35 PM 56.3 °F - 50.7 °F 82% 29.97 in 10.0 mi NNW 12.7 mph 18.4 mph N/A   Overcast
6:55 PM 56.3 °F - 49.1 °F 77% 29.97 in 10.0 mi NW 9.2 mph 18.4 mph N/A   Overcast
7:15 PM 56.3 °F - 48.7 °F 76% 29.98 in 10.0 mi NW 9.2 mph 17.3 mph N/A   Overcast
7:35 PM 55.8 °F - 48.7 °F 77% 29.98 in 10.0 mi NNW 8.1 mph - N/A   Overcast
7:55 PM 55.4 °F - 48.7 °F 78% 29.99 in 10.0 mi NW 9.2 mph - N/A   Overcast
8:15 PM 54.9 °F - 48.9 °F 80% 30.00 in 10.0 mi NNW 6.9 mph - N/A   Overcast
8:35 PM 54.5 °F - 48.7 °F 81% 30.00 in 10.0 mi NW 8.1 mph - N/A   Overcast
8:55 PM 54.5 °F - 48.6 °F 80% 30.01 in 10.0 mi NNW 8.1 mph - N/A   Overcast
9:15 PM 53.8 °F - 48.4 °F 82% 30.02 in 10.0 mi NNW 4.6 mph - N/A   Overcast
9:35 PM 53.6 °F - 48.2 °F 82% 30.02 in 10.0 mi NW 3.5 mph - N/A   Overcast
9:55 PM 52.2 °F - 46.8 °F 82% 30.02 in 10.0 mi WNW 4.6 mph - N/A   Mostly Cloudy
10:15 PM 50.9 °F - 46.4 °F 85% 30.03 in 10.0 mi West 4.6 mph - N/A   Scattered Clouds
10:35 PM 51.1 °F - 47.1 °F 86% 30.03 in 10.0 mi WNW 4.6 mph - N/A   Mostly Cloudy
10:55 PM 50.0 °F - 46.4 °F 87% 30.03 in 10.0 mi WNW 4.6 mph - N/A   Scattered Clouds
11:15 PM 50.0 °F - 45.9 °F 86% 30.04 in 10.0 mi NW 5.8 mph - N/A   Clear
11:35 PM 49.5 °F - 45.7 °F 87% 30.04 in 10.0 mi NW 4.6 mph - N/A   Clear
11:55 PM 49.1 °F - 45.3 °F 87% 30.04 in 10.0 mi NW 4.6 mph - N/A   Clear